This is the latest recevied weather packets stored in our database for station/object AA0PB. If no packets are shown the sender has not sent any weather packets the latest 10 day(s).
| Time | Temp. | Humidity | Pressure | Rain* | Wind** | Luminosity | Snow |
|---|---|---|---|---|---|---|---|
| 1777644781 | 10° C | 92% | 1017 hPa | 0 mm | - | 63 W/m² | - |
| 1777644479 | 10° C | 93% | 1017.1 hPa | 0 mm | - | 59 W/m² | - |
| 1777644175 | 10° C | 93% | 1017 hPa | 0 mm | - | 54 W/m² | - |
| 1777643871 | 10° C | 93% | 1016.8 hPa | 0 mm | - | 49 W/m² | - |
| 1777643569 | 10° C | 93% | 1016.7 hPa | 0 mm | - | 43 W/m² | - |
| 1777643265 | 10° C | 92% | 1016.8 hPa | 0 mm | - | 38 W/m² | - |
| 1777642962 | 10° C | 92% | 1016.7 hPa | 0 mm | - | 32 W/m² | - |
| 1777642658 | 10° C | 92% | 1016.9 hPa | 0 mm | - | 27 W/m² | - |
| 1777642356 | 10° C | 92% | 1016.4 hPa | 0 mm | - | 23 W/m² | - |
| 1777642052 | 10° C | 92% | 1016.6 hPa | 0 mm | - | 18 W/m² | - |
| 1777641749 | 10° C | 92% | 1016.5 hPa | 0 mm | - | 14 W/m² | - |
| 1777641443 | 10° C | 91% | 1016.4 hPa | 0 mm | - | 9 W/m² | - |
| 1777641139 | 10° C | 90% | 1016.6 hPa | 0 mm | - | 6 W/m² | - |
| 1777640835 | 10° C | 90% | 1016.6 hPa | 0 mm | - | 4 W/m² | - |
| 1777640532 | 10° C | 90% | 1016.6 hPa | 0 mm | - | 3 W/m² | - |
| 1777640229 | 10° C | 89% | 1016.3 hPa | 0 mm | - | 2 W/m² | - |
| 1777639925 | 10.56° C | 88% | 1016.4 hPa | 0 mm | - | 1 W/m² | - |
| 1777639623 | 10.56° C | 88% | 1016.2 hPa | 0 mm | - | 1 W/m² | - |
| 1777639320 | 10.56° C | 89% | 1016.2 hPa | 0 mm | - | 0 W/m² | - |
| 1777639015 | 10° C | 89% | 1016.6 hPa | 0 mm | - | 0 W/m² | - |
| 1777638712 | 10° C | 89% | 1016.3 hPa | 0 mm | - | 0 W/m² | - |
| 1777638408 | 10° C | 90% | 1016.3 hPa | 0 mm | - | 0 W/m² | - |
| 1777638105 | 10° C | 91% | 1016.2 hPa | 0 mm | - | 0 W/m² | - |
| 1777637801 | 10° C | 90% | 1016.4 hPa | 0 mm | - | 0 W/m² | - |
| 1777637497 | 10° C | 90% | 1016.5 hPa | 0 mm | - | 0 W/m² | - |
* Rain latest hour (hover to see other rain measurements)
** Current wind speed in m/s (hover to see current wind gust speed)